SCP
0 0 0 0 0 0 0 0 0 0 0 0 0 0 0 0 0 0 0 0 0 0 0 -0 -0 -0 -0 -0 -0 0 -0 0 0 0 0 0 0 0 0 0 0 0 0 0
0 0 0 0 0 0 0 0 0 0 0 0 0 0 0 0 0 0 0 0 0 0 0 -0 -0 0 -0 -0 -0 -0 0 0 0 0 0 0 0 0 0 0 0 0 0 0
0 0 0 0 0 0 0 0 0 0 0 0 0 0 0 0 0 0 0 0 0 0 0 0 0 -0 0 0 0 0 0 0 0 0 0 0 0 0 0 0 0 0 0 0
0 0 0 0 0 0 0 0 0 0 0 0 0 0 0 0 0 0 0 0 0 0 0 0 0 0 0 0 0 0 0 0 0 0 0 0 0 0 0 0 0 0 0 0
0 0 0 0 0 0 0 0 0 0 0 0 0 0 0 0 0 0 0 0 0 0 0 0 0 0 0 0 0 0 0 0 0 0 0 0 0 0 0 0 0 0 0 0
0 0 0 0 0 0 0 0 0 0 0 0 0 0 0 0 0 0 0 0 0 0 0 0 0 0 0 0 0 0 0 0 0 0 0 0 0 0 0 0 0 0 0 0
0 0 0 0 0 0 0 0 0 0 0 0 0 0 0 0 0 0 0 0 0 0 0 0 0 0 0 0 0 0 0 0 0 0 0 0 0 0 -0 0 0 0 0 0
0 0 0 0 0 0 0 0 0 0 0 0 0 0 0 0 0 0 0 0 0 0 0 0 0 0 0 0 0 0 0 0 0 0 0 0 -0 -0 -0 0 -0 -0 0 0
0 0 0 0 0 0 0 0 0 0 0 0 0 0 0 0 0 0 0 0 0 0 0 0 0 0 0 0 0 0 0 0 0 -0 -0 -0 -0 -0 -0 -0 -0 -0 -0 -0
0 0 0 0 0 0 0 0 0 0 0 0 0 0 0 0 0 0 0 0 0 0 0 0 0 0 0 0 0 0 0 0 0 -0 -0 -0 -0 -0 -0 -0 -0 -0 0 0
0 0 0 0 0 0 0 0 0 0 0 0 0 0 0 0 0 0 0 0 0 0 0 0 0 0 0 0 0 0 0 -0 0 0 -0 -0 -0 -0 -0 -0 -0 -0 -0 0
0 0 0 0 0 0 0 0 0 0 0 0 0 0 0 0 0 0 0 0 0 0 0 0 0 0 0 0 0 0 0 0 0 0 0 -0 -0 -0 -0 -0 -0 -0 -0 -0
0 0 0 0 0 0 0 0 0 0 0 0 0 0 0 0 0 0 0 0 0 0 0 0 0 0 0 0 0 0 0 0 0 0 0 0 0 0 -0 -0 -0 0 -0 0
0 0 0 0 0 0 0 0 0 0 0 0 0 0 0 0 0 0 0 0 0 0 0 0 0 0 0 0 0 0 0 0 0 0 0 0 0 0 0 0 0 0 0 -0
0 0 0 0 0 0 0 0 0 0 0 0 0 0 0 0 0 0 0 0 0 0 0 0 0 0 0 0 0 0 0 0 0 0 0 0 0 0 0 0 0 0 0 0
0 0 0 0 0 0 0 0 0 0 0 0 0 0 0 0 0 0 0 0 0 0 0 0 0 0 0 0 0 0 0 0 0 0 0 0 0 0 0 0 0 0 0 0
0 0 0 0 0 0 0 0 0 0 0 0 0 0 0 0 0 0 0 0 0 0 0 0 0 0 0 0 0 0 0 0 0 0 0 0 0 0 0 0 0 0 0 0
0 0 0 0 0 0 0 0 0 0 0 0 0 0 0 0 0 0 0 0 0 0 0 0 0 0 0 0 0 0 0 0 0 0 0 0 0 0 0 0 0 0 0 0
0 0 0 0 0 0 0 0 0 0 0 0 0 0 0 0 0 0 0 0 0 0 0 0 0 0 0 0 0 0 0 0 0 0 0 0 0 0 0 0 0 0 0 0
0 0 0 0 0 0 0 0 0 0 0 0 0 0 0 0 0 0 0 0 0 0 0 0 0 0 0 0 0 0 0 0 0 -0 -0 0 0 0 0 -0 -0 -0 -0 0
0 0 0 0 0 0 0 0 0 0 0 0 0 0 0 0 0 0 0 0 0 0 0 0 0 0 0 0 0 0 0 0 0 0 0 -0 0 0 0 0 0 -0 -0 -0
0 0 0 0 0 0 0 0 0 0 0 0 0 0 0 0 0 0 0 0 0 0 0 0 0 0 0 0 0 0 0 0 0 0 0 0 -0 0 0 0 0 0 -0 -0
0 0 0 0 0 0 0 0 0 0 0 0 0 0 0 0 0 0 0 0 0 0 0 0 0 0 0 0 0 0 0 0 0 0 0 -0 -0 -0 -0 0 0 0 -0 -0
0 0 0 0 0 0 0 0 0 0 0 0 0 0 0 0 0 0 0 0 0 0 0 0 0 0 0 0 0 0 0 0 0 0 0 0 -0 -0 -0 -0 -0 -0 -0 -0
0 0 0 0 0 0 0 0 0 0 0 0 0 0 0 0 0 0 0 0 0 0 0 0 0 0 0 0 0 0 0 0 0 0 0 0 0 0 -0 -0 -0 0 0 0
0 0 0 0 0 0 0 0 0 0 0 0 0 0 0 0 0 0 0 0 0 0 0 0 0 0 0 0 0 0 0 0 0 0 0 0 0 0 0 0 -0 0 0 0
Wind_Speed_500mb
11 14 8 5 7 7 10 6 2 5 2 7 5 13 19 31 31 30 15 10 17 26 34 39 43 46 46 48 49 50 47 45 43 34 25 22 24 20 19 28 28 30 37 39
11 9 1 4 9 9 9 5 4 7 5 4 11 16 9 19 13 22 14 14 20 26 32 35 38 40 45 48 49 48 45 40 41 34 27 27 18 20 24 28 18 23 29 34
10 8 6 5 8 8 5 10 3 5 11 6 9 9 11 5 11 16 15 15 18 26 34 36 37 39 40 45 51 52 48 39 35 35 28 23 22 21 23 23 27 20 24 20
8 3 7 7 7 3 5 6 4 4 6 2 8 6 10 10 13 20 25 18 20 24 30 35 35 34 36 39 41 45 50 49 41 35 33 28 25 23 21 19 21 23 20 17
5 4 5 8 3 2 4 2 3 1 7 5 11 8 12 8 12 14 35 35 24 24 29 33 34 30 31 33 38 40 43 46 51 51 48 40 40 33 27 23 17 12 15 16
5 3 3 6 4 4 4 6 11 8 6 7 6 7 10 6 5 11 42 46 25 28 30 30 31 29 27 29 33 37 41 44 48 51 53 54 50 40 42 39 37 30 23 16
5 5 4 3 5 7 10 10 7 11 10 7 1 3 13 5 9 9 21 37 33 29 34 34 33 35 33 31 33 35 38 41 46 49 51 52 51 49 45 44 45 44 30 27
10 8 4 4 4 6 7 7 9 8 3 8 5 8 4 11 30 39 44 43 45 48 50 42 39 36 33 28 26 28 33 39 46 51 54 52 49 48 46 45 47 35 38 33
9 4 2 8 4 5 2 6 5 13 4 6 4 10 5 7 19 37 45 53 54 53 57 51 46 36 28 23 23 24 26 35 43 51 56 54 51 46 43 39 37 42 42 33
11 9 3 2 6 11 4 9 7 7 3 9 8 9 10 3 12 15 37 44 48 48 52 52 52 31 23 21 20 29 38 42 56 68 56 49 44 43 39 40 39 34 31 33
8 7 4 4 5 11 3 2 9 8 7 9 5 10 10 14 5 12 28 41 43 45 49 52 47 34 28 22 21 40 52 46 41 35 34 30 31 37 38 37 36 36 34 29
5 9 6 3 5 3 6 9 10 9 11 5 5 12 13 19 11 25 31 38 41 40 49 51 43 21 17 19 33 34 24 27 35 39 35 32 32 34 36 35 33 35 35 33
14 2 6 12 12 6 8 8 10 11 5 11 8 11 24 13 17 30 33 40 37 32 37 40 31 16 16 17 18 14 23 36 31 30 41 39 37 33 31 30 30 27 28 30
10 6 12 14 10 9 11 12 11 12 8 8 17 16 24 13 15 30 32 30 20 20 21 23 19 13 12 17 21 20 24 31 31 24 26 30 34 35 35 32 28 26 24 25
7 9 6 3 4 1 6 11 17 16 12 15 27 16 13 12 6 15 17 16 15 20 22 24 22 21 20 19 21 23 20 19 20 21 24 26 29 32 32 30 29 26 23 22
5 5 5 5 5 2 8 14 17 13 7 17 11 32 9 7 8 10 17 15 15 17 18 19 19 20 23 24 25 27 29 30 27 27 30 30 30 31 33 32 31 29 25 22
10 13 7 9 6 6 15 21 28 12 9 15 11 17 9 4 9 7 5 6 12 17 21 23 27 30 32 33 33 34 35 35 39 39 38 38 39 37 34 35 34 33 31 27
11 11 6 7 4 1 8 3 7 13 10 17 3 8 15 11 10 12 12 15 18 25 32 35 37 37 39 40 40 41 42 44 43 44 46 46 46 46 42 38 36 34 33 32
6 10 5 8 7 11 8 12 14 14 12 16 16 21 18 13 7 26 31 25 26 32 38 41 44 45 47 51 52 51 49 49 50 50 49 50 52 54 51 48 44 41 39 37
8 11 7 5 9 14 8 8 26 18 10 26 32 30 24 9 4 10 23 29 40 44 44 44 45 48 53 57 60 61 59 56 56 56 56 54 54 55 56 53 51 47 47 43
6 6 11 6 5 16 11 29 21 12 12 42 38 34 29 13 23 23 38 42 41 41 41 44 48 54 60 64 66 65 63 59 59 58 56 57 58 58 56 57 55 55 54 54
16 16 9 7 6 18 42 16 17 12 30 44 38 32 27 25 27 35 37 37 36 34 36 39 41 42 43 46 48 49 50 54 57 57 57 58 57 59 60 58 59 56 56 56
8 14 13 20 15 3 78 10 29 37 39 36 32 25 23 23 26 29 30 26 26 28 27 30 32 36 37 41 43 46 46 49 51 49 51 56 59 59 60 61 59 58 55 53
9 13 6 6 10 24 68 28 41 36 27 24 22 22 20 20 24 25 20 18 18 18 23 28 31 33 35 38 40 43 48 49 50 51 49 50 54 58 59 60 59 58 56 55
7 26 14 8 5 13 46 61 49 42 33 30 26 19 18 22 25 20 15 13 13 15 20 24 27 31 33 36 37 41 45 50 53 52 52 52 52 52 54 54 57 59 55 53
23 14 13 15 37 27 26 75 64 53 47 35 26 20 22 23 22 16 13 12 13 14 17 18 21 26 28 31 34 38 42 46 50 53 54 53 52 50 49 52 54 49 53 54
Wind_Direction_500mb
28 63 74 69 54 108 112 102 335 239 224 346 10 292 317 350 12 22 64 48 16 2 360 357 357 355 357 358 357 359 359 3 359 354 344 317 315 308 314 282 275 266 261 247
32 91 256 127 74 91 71 107 351 294 275 21 343 308 313 4 15 32 37 23 8 0 358 360 359 1 7 9 11 7 6 5 2 353 333 339 340 327 323 312 292 278 275 265
112 150 73 95 53 88 61 120 125 218 324 82 330 334 341 342 25 27 24 14 4 357 356 359 2 7 11 16 20 19 14 7 5 355 343 319 306 313 304 310 311 315 293 282
89 22 108 84 85 106 116 184 184 261 55 329 2 267 323 347 355 21 7 350 342 353 0 356 356 359 9 17 19 22 24 26 21 10 13 15 16 8 357 344 335 326 324 304
185 120 101 88 137 307 177 179 316 29 94 71 357 71 266 4 27 340 358 354 343 346 352 350 344 347 359 6 12 18 23 29 32 32 30 28 31 31 17 12 1 359 349 332
100 63 68 135 90 35 322 97 50 49 77 42 258 94 287 19 300 333 357 5 344 333 332 335 334 330 339 355 4 12 19 28 31 31 31 32 31 24 5 7 20 16 10 0
33 345 351 91 86 11 55 49 345 1 15 205 262 39 247 2 22 13 357 2 357 337 326 326 327 325 322 337 352 3 12 20 26 26 27 29 30 29 25 17 20 9 13 12
148 314 166 12 58 147 49 120 147 222 273 273 328 229 207 79 64 47 39 35 26 15 360 325 310 311 312 327 344 351 2 10 17 19 18 19 21 24 27 26 13 16 8 2
141 132 28 61 64 77 238 58 164 100 68 42 253 283 85 81 33 29 13 8 5 1 360 343 332 293 303 319 335 357 6 4 5 1 356 359 3 7 13 19 20 13 10 10
192 103 343 112 101 49 104 150 66 19 12 298 284 278 232 60 11 3 11 5 358 352 345 343 342 291 283 292 312 325 337 336 335 327 332 348 346 342 357 2 4 11 10 7
142 105 240 141 184 169 30 46 56 110 146 187 279 251 192 132 120 4 359 360 354 348 342 338 333 309 271 286 305 313 319 306 328 324 334 333 329 334 341 354 2 3 7 10
174 127 139 204 313 316 236 175 134 126 247 236 156 273 133 145 117 12 358 352 349 353 344 343 339 315 264 295 319 326 335 344 342 338 334 329 326 325 326 335 350 358 4 8
186 324 61 354 357 341 230 169 111 109 86 203 139 258 183 140 14 9 349 346 352 357 356 4 14 358 338 348 344 341 336 322 317 317 317 330 331 330 323 322 331 347 357 2
130 104 158 180 179 151 189 177 150 132 137 195 224 278 281 322 335 343 349 352 2 1 18 29 29 18 343 335 333 334 331 312 308 324 334 336 335 338 339 330 320 323 339 350
116 164 127 307 306 162 191 173 171 192 190 194 266 220 258 273 276 9 359 6 20 21 22 19 5 350 336 323 318 316 311 317 321 329 337 342 347 348 344 336 327 312 313 328
13 123 94 6 3 78 264 226 225 210 186 265 275 281 154 115 92 65 48 37 24 21 14 11 359 349 339 335 331 328 325 323 322 324 324 328 331 336 340 341 337 328 307 299
124 136 102 252 342 333 307 227 204 179 190 158 182 227 154 140 161 106 58 8 356 350 339 335 334 332 330 328 327 325 323 322 318 315 314 314 317 321 327 333 335 331 327 304
129 103 81 181 351 222 253 142 194 171 190 198 156 182 168 153 209 224 244 281 309 322 322 321 320 317 312 308 307 306 305 304 302 304 307 307 307 308 313 317 319 320 321 324
46 119 100 151 199 306 265 197 171 164 256 194 187 176 186 205 272 236 246 271 307 321 320 316 312 309 304 301 300 299 298 297 296 294 294 296 299 299 301 306 310 313 312 310
68 62 116 118 152 211 236 165 131 110 287 179 181 176 188 191 239 262 245 285 306 310 312 310 304 303 302 300 300 298 296 295 293 291 290 292 294 294 294 298 301 305 308 308
95 32 163 164 211 287 210 158 133 97 235 175 182 186 190 192 242 270 278 286 296 306 303 298 300 304 306 305 302 301 300 297 290 289 290 290 291 293 293 293 295 298 299 299
159 151 177 96 89 273 163 126 164 173 152 168 179 197 216 240 261 276 284 299 310 313 311 307 314 320 325 325 321 316 313 308 300 288 286 288 290 293 294 294 292 294 296 294
203 183 177 185 205 199 174 170 187 164 168 186 198 209 223 244 265 272 291 302 311 316 317 323 333 337 340 339 340 335 332 325 320 309 297 293 292 292 291 293 291 291 291 291
244 168 152 112 197 202 188 183 187 194 205 206 208 214 238 265 266 271 281 294 306 313 319 326 332 335 337 337 338 333 333 331 328 325 320 312 304 298 294 291 291 289 288 287
170 146 158 266 209 193 212 214 210 205 212 211 214 230 268 270 262 261 269 284 298 311 317 325 331 334 338 338 340 336 335 334 334 333 329 324 317 311 304 298 294 290 284 284
192 163 176 213 193 186 205 212 209 210 212 213 224 245 268 259 252 251 260 277 295 308 315 325 332 335 339 342 344 343 342 343 341 339 336 333 328 325 320 313 303 292 289 281
Wind_Speed_850mb
11 14 8 5 7 7 10 6 2 5 2 7 5 13 19 31 31 30 15 10 17 26 34 39 43 46 46 48 49 50 47 45 43 34 25 22 24 20 19 28 28 30 37 39
11 9 1 4 9 9 9 5 4 7 5 4 11 16 9 19 13 22 14 14 20 26 32 35 38 40 45 48 49 48 45 40 41 34 27 27 18 20 24 28 18 23 29 34
10 8 6 5 8 8 5 10 3 5 11 6 9 9 11 5 11 16 15 15 18 26 34 36 37 39 40 45 51 52 48 39 35 35 28 23 22 21 23 23 27 20 24 20
8 3 7 7 7 3 5 6 4 4 6 2 8 6 10 10 13 20 25 18 20 24 30 35 35 34 36 39 41 45 50 49 41 35 33 28 25 23 21 19 21 23 20 17
5 4 5 8 3 2 4 2 3 1 7 5 11 8 12 8 12 14 35 35 24 24 29 33 34 30 31 33 38 40 43 46 51 51 48 40 40 33 27 23 17 12 15 16
5 3 3 6 4 4 4 6 11 8 6 7 6 7 10 6 5 11 42 46 25 28 30 30 31 29 27 29 33 37 41 44 48 51 53 54 50 40 42 39 37 30 23 16
5 5 4 3 5 7 10 10 7 11 10 7 1 3 13 5 9 9 21 37 33 29 34 34 33 35 33 31 33 35 38 41 46 49 51 52 51 49 45 44 45 44 30 27
10 8 4 4 4 6 7 7 9 8 3 8 5 8 4 11 30 39 44 43 45 48 50 42 39 36 33 28 26 28 33 39 46 51 54 52 49 48 46 45 47 35 38 33
9 4 2 8 4 5 2 6 5 13 4 6 4 10 5 7 19 37 45 53 54 53 57 51 46 36 28 23 23 24 26 35 43 51 56 54 51 46 43 39 37 42 42 33
11 9 3 2 6 11 4 9 7 7 3 9 8 9 10 3 12 15 37 44 48 48 52 52 52 31 23 21 20 29 38 42 56 68 56 49 44 43 39 40 39 34 31 33
8 7 4 4 5 11 3 2 9 8 7 9 5 10 10 14 5 12 28 41 43 45 49 52 47 34 28 22 21 40 52 46 41 35 34 30 31 37 38 37 36 36 34 29
5 9 6 3 5 3 6 9 10 9 11 5 5 12 13 19 11 25 31 38 41 40 49 51 43 21 17 19 33 34 24 27 35 39 35 32 32 34 36 35 33 35 35 33
14 2 6 12 12 6 8 8 10 11 5 11 8 11 24 13 17 30 33 40 37 32 37 40 31 16 16 17 18 14 23 36 31 30 41 39 37 33 31 30 30 27 28 30
10 6 12 14 10 9 11 12 11 12 8 8 17 16 24 13 15 30 32 30 20 20 21 23 19 13 12 17 21 20 24 31 31 24 26 30 34 35 35 32 28 26 24 25
7 9 6 3 4 1 6 11 17 16 12 15 27 16 13 12 6 15 17 16 15 20 22 24 22 21 20 19 21 23 20 19 20 21 24 26 29 32 32 30 29 26 23 22
5 5 5 5 5 2 8 14 17 13 7 17 11 32 9 7 8 10 17 15 15 17 18 19 19 20 23 24 25 27 29 30 27 27 30 30 30 31 33 32 31 29 25 22
10 13 7 9 6 6 15 21 28 12 9 15 11 17 9 4 9 7 5 6 12 17 21 23 27 30 32 33 33 34 35 35 39 39 38 38 39 37 34 35 34 33 31 27
11 11 6 7 4 1 8 3 7 13 10 17 3 8 15 11 10 12 12 15 18 25 32 35 37 37 39 40 40 41 42 44 43 44 46 46 46 46 42 38 36 34 33 32
6 10 5 8 7 11 8 12 14 14 12 16 16 21 18 13 7 26 31 25 26 32 38 41 44 45 47 51 52 51 49 49 50 50 49 50 52 54 51 48 44 41 39 37
8 11 7 5 9 14 8 8 26 18 10 26 32 30 24 9 4 10 23 29 40 44 44 44 45 48 53 57 60 61 59 56 56 56 56 54 54 55 56 53 51 47 47 43
6 6 11 6 5 16 11 29 21 12 12 42 38 34 29 13 23 23 38 42 41 41 41 44 48 54 60 64 66 65 63 59 59 58 56 57 58 58 56 57 55 55 54 54
16 16 9 7 6 18 42 16 17 12 30 44 38 32 27 25 27 35 37 37 36 34 36 39 41 42 43 46 48 49 50 54 57 57 57 58 57 59 60 58 59 56 56 56
8 14 13 20 15 3 78 10 29 37 39 36 32 25 23 23 26 29 30 26 26 28 27 30 32 36 37 41 43 46 46 49 51 49 51 56 59 59 60 61 59 58 55 53
9 13 6 6 10 24 68 28 41 36 27 24 22 22 20 20 24 25 20 18 18 18 23 28 31 33 35 38 40 43 48 49 50 51 49 50 54 58 59 60 59 58 56 55
7 26 14 8 5 13 46 61 49 42 33 30 26 19 18 22 25 20 15 13 13 15 20 24 27 31 33 36 37 41 45 50 53 52 52 52 52 52 54 54 57 59 55 53
23 14 13 15 37 27 26 75 64 53 47 35 26 20 22 23 22 16 13 12 13 14 17 18 21 26 28 31 34 38 42 46 50 53 54 53 52 50 49 52 54 49 53 54
Wind_Direction_850mb
28 63 74 69 54 108 112 102 335 239 224 346 10 292 317 350 12 22 64 48 16 2 360 357 357 355 357 358 357 359 359 3 359 354 344 317 315 308 314 282 275 266 261 247
32 91 256 127 74 91 71 107 351 294 275 21 343 308 313 4 15 32 37 23 8 0 358 360 359 1 7 9 11 7 6 5 2 353 333 339 340 327 323 312 292 278 275 265
112 150 73 95 53 88 61 120 125 218 324 82 330 334 341 342 25 27 24 14 4 357 356 359 2 7 11 16 20 19 14 7 5 355 343 319 306 313 304 310 311 315 293 282
89 22 108 84 85 106 116 184 184 261 55 329 2 267 323 347 355 21 7 350 342 353 0 356 356 359 9 17 19 22 24 26 21 10 13 15 16 8 357 344 335 326 324 304
185 120 101 88 137 307 177 179 316 29 94 71 357 71 266 4 27 340 358 354 343 346 352 350 344 347 359 6 12 18 23 29 32 32 30 28 31 31 17 12 1 359 349 332
100 63 68 135 90 35 322 97 50 49 77 42 258 94 287 19 300 333 357 5 344 333 332 335 334 330 339 355 4 12 19 28 31 31 31 32 31 24 5 7 20 16 10 0
33 345 351 91 86 11 55 49 345 1 15 205 262 39 247 2 22 13 357 2 357 337 326 326 327 325 322 337 352 3 12 20 26 26 27 29 30 29 25 17 20 9 13 12
148 314 166 12 58 147 49 120 147 222 273 273 328 229 207 79 64 47 39 35 26 15 360 325 310 311 312 327 344 351 2 10 17 19 18 19 21 24 27 26 13 16 8 2
141 132 28 61 64 77 238 58 164 100 68 42 253 283 85 81 33 29 13 8 5 1 360 343 332 293 303 319 335 357 6 4 5 1 356 359 3 7 13 19 20 13 10 10
192 103 343 112 101 49 104 150 66 19 12 298 284 278 232 60 11 3 11 5 358 352 345 343 342 291 283 292 312 325 337 336 335 327 332 348 346 342 357 2 4 11 10 7
142 105 240 141 184 169 30 46 56 110 146 187 279 251 192 132 120 4 359 360 354 348 342 338 333 309 271 286 305 313 319 306 328 324 334 333 329 334 341 354 2 3 7 10
174 127 139 204 313 316 236 175 134 126 247 236 156 273 133 145 117 12 358 352 349 353 344 343 339 315 264 295 319 326 335 344 342 338 334 329 326 325 326 335 350 358 4 8
186 324 61 354 357 341 230 169 111 109 86 203 139 258 183 140 14 9 349 346 352 357 356 4 14 358 338 348 344 341 336 322 317 317 317 330 331 330 323 322 331 347 357 2
130 104 158 180 179 151 189 177 150 132 137 195 224 278 281 322 335 343 349 352 2 1 18 29 29 18 343 335 333 334 331 312 308 324 334 336 335 338 339 330 320 323 339 350
116 164 127 307 306 162 191 173 171 192 190 194 266 220 258 273 276 9 359 6 20 21 22 19 5 350 336 323 318 316 311 317 321 329 337 342 347 348 344 336 327 312 313 328
13 123 94 6 3 78 264 226 225 210 186 265 275 281 154 115 92 65 48 37 24 21 14 11 359 349 339 335 331 328 325 323 322 324 324 328 331 336 340 341 337 328 307 299
124 136 102 252 342 333 307 227 204 179 190 158 182 227 154 140 161 106 58 8 356 350 339 335 334 332 330 328 327 325 323 322 318 315 314 314 317 321 327 333 335 331 327 304
129 103 81 181 351 222 253 142 194 171 190 198 156 182 168 153 209 224 244 281 309 322 322 321 320 317 312 308 307 306 305 304 302 304 307 307 307 308 313 317 319 320 321 324
46 119 100 151 199 306 265 197 171 164 256 194 187 176 186 205 272 236 246 271 307 321 320 316 312 309 304 301 300 299 298 297 296 294 294 296 299 299 301 306 310 313 312 310
68 62 116 118 152 211 236 165 131 110 287 179 181 176 188 191 239 262 245 285 306 310 312 310 304 303 302 300 300 298 296 295 293 291 290 292 294 294 294 298 301 305 308 308
95 32 163 164 211 287 210 158 133 97 235 175 182 186 190 192 242 270 278 286 296 306 303 298 300 304 306 305 302 301 300 297 290 289 290 290 291 293 293 293 295 298 299 299
159 151 177 96 89 273 163 126 164 173 152 168 179 197 216 240 261 276 284 299 310 313 311 307 314 320 325 325 321 316 313 308 300 288 286 288 290 293 294 294 292 294 296 294
203 183 177 185 205 199 174 170 187 164 168 186 198 209 223 244 265 272 291 302 311 316 317 323 333 337 340 339 340 335 332 325 320 309 297 293 292 292 291 293 291 291 291 291
244 168 152 112 197 202 188 183 187 194 205 206 208 214 238 265 266 271 281 294 306 313 319 326 332 335 337 337 338 333 333 331 328 325 320 312 304 298 294 291 291 289 288 287
170 146 158 266 209 193 212 214 210 205 212 211 214 230 268 270 262 261 269 284 298 311 317 325 331 334 338 338 340 336 335 334 334 333 329 324 317 311 304 298 294 290 284 284
192 163 176 213 193 186 205 212 209 210 212 213 224 245 268 259 252 251 260 277 295 308 315 325 332 335 339 342 344 343 342 343 341 339 336 333 328 325 320 313 303 292 289 281